| time (UTC) | temp F | wind direction | speed MPH | gust MPH | rain 1hr in | rain 24hr in | rain mn in | humidity % | barometer mb |
| 20260508033510 | 63 | 281 | 4.0 | 4.0 | 0.00 | 0.00 | 0.00 | 86 | 1009.1 |
| 20260508033023 | 63 | 268 | 3.0 | 4.0 | 0.00 | 0.00 | 0.00 | 85 | 1009.5 |
| 20260508032508 | 63 | 328 | 3.0 | 4.0 | 0.00 | 0.00 | 0.00 | 85 | 1009.5 |
| 20260508032013 | 63 | 281 | 4.0 | 5.0 | 0.00 | 0.00 | 0.00 | 85 | 1009.5 |
| 20260508031513 | 63 | 231 | 3.0 | 4.0 | 0.00 | 0.00 | 0.00 | 84 | 1009.5 |
| 20260508031012 | 63 | 294 | 2.0 | 2.0 | 0.00 | 0.00 | 0.00 | 84 | 1009.1 |
| 20260508030509 | 63 | 294 | 3.0 | 4.0 | 0.00 | 0.00 | 0.00 | 83 | 1009.1 |
| 20260508030033 | 63 | 272 | 7.0 | 8.0 | 0.00 | 0.00 | 0.00 | 83 | 1009.5 |
| 20260508025509 | 63 | 267 | 4.0 | 4.0 | 0.00 | 0.00 | 0.00 | 83 | 1009.5 |
| 20260508025013 | 63 | 356 | 4.0 | 6.0 | 0.00 | 0.00 | 0.00 | 83 | 1009.1 |
| 20260508024512 | 63 | 3 | 7.0 | 7.0 | 0.00 | 0.00 | 0.00 | 83 | 1009.1 |
| 20260508024013 | 63 | 14 | 3.0 | 4.0 | 0.00 | 0.00 | 0.00 | 83 | 1009.1 |
| 20260508023509 | 63 | 282 | 4.0 | 4.0 | 0.00 | 0.00 | 0.00 | 83 | 1009.5 |
| 20260508023023 | 61 | 309 | 2.0 | 3.0 | 0.00 | 0.00 | 0.00 | 83 | 1009.5 |
| 20260508022509 | 61 | 285 | 2.0 | 2.0 | 0.00 | 0.00 | 0.00 | 83 | 1009.8 |
| 20260508022013 | 61 | 348 | 3.0 | 4.0 | 0.00 | 0.00 | 0.00 | 84 | 1009.5 |
| 20260508021512 | 61 | 308 | 4.0 | 4.0 | 0.00 | 0.00 | 0.00 | 85 | 1009.8 |
| 20260508021014 | 61 | 8 | 2.0 | 3.0 | 0.00 | 0.00 | 0.00 | 85 | 1009.5 |
| 20260508020509 | 61 | 311 | 3.0 | 4.0 | 0.00 | 0.00 | 0.00 | 85 | 1009.1 |
| 20260508020031 | 61 | 287 | 3.0 | 4.0 | 0.00 | 0.00 | 0.00 | 86 | 1009.8 |
| 20260508015509 | 61 | 276 | 1.0 | 1.0 | 0.00 | 0.00 | 0.00 | 85 | 1009.8 |
| 20260508015012 | 61 | 221 | 0.0 | 0.0 | 0.00 | 0.00 | 0.00 | 85 | 1009.5 |
| 20260508014512 | 61 | 247 | 1.0 | 2.0 | 0.00 | 0.00 | 0.00 | 85 | 1009.5 |
| 20260508014012 | 61 | 283 | 1.0 | 2.0 | 0.00 | 0.00 | 0.00 | 85 | 1009.5 |
| 20260508013509 | 61 | 277 | 1.0 | 2.0 | 0.00 | 0.00 | 0.00 | 85 | 1009.5 |
| 20260508013022 | 61 | 249 | 2.0 | 3.0 | 0.00 | 0.00 | 0.00 | 85 | 1009.8 |
| 20260508012509 | 61 | 0 | 3.0 | 4.0 | 0.00 | 0.00 | 0.00 | 85 | 1009.8 |
| 20260508012014 | 61 | 319 | 2.0 | 3.0 | 0.00 | 0.00 | 0.00 | 85 | 1009.8 |
| 20260508011513 | 61 | 324 | 2.0 | 3.0 | 0.00 | 0.00 | 0.00 | 86 | 1009.8 |
| 20260508011013 | 59 | 290 | 2.0 | 3.0 | 0.00 | 0.00 | 0.00 | 86 | 1009.8 |
| 20260508010510 | 59 | 244 | 1.0 | 2.0 | 0.00 | 0.00 | 0.00 | 84 | 1009.8 |
| 20260508010032 | 59 | 237 | 2.0 | 3.0 | 0.00 | 0.00 | 0.00 | 83 | 1010.2 |
| 20260508005509 | 61 | 212 | 2.0 | 2.0 | 0.00 | 0.00 | 0.00 | 81 | 1010.2 |
| 20260508005013 | 61 | 275 | 2.0 | 2.0 | 0.00 | 0.00 | 0.00 | 81 | 1010.2 |
| 20260508004513 | 61 | 351 | 3.0 | 4.0 | 0.00 | 0.00 | 0.00 | 81 | 1010.2 |
| 20260508004013 | 61 | 344 | 1.0 | 2.0 | 0.00 | 0.00 | 0.00 | 82 | 1010.2 |
| 20260508003510 | 61 | 267 | 1.0 | 2.0 | 0.00 | 0.00 | 0.00 | 82 | 1010.2 |
| 20260508003023 | 61 | 318 | 2.0 | 4.0 | 0.00 | 0.00 | 0.00 | 82 | 1010.5 |
| 20260508002509 | 61 | 329 | 2.0 | 3.0 | 0.00 | 0.00 | 0.00 | 83 | 1010.5 |
| 20260508002013 | 59 | 261 | 2.0 | 2.0 | 0.00 | 0.00 | 0.00 | 82 | 1010.5 |
| 20260508001518 | 61 | 220 | 2.0 | 3.0 | 0.00 | 0.00 | 0.00 | 80 | 1010.5 |
| 20260508000510 | 61 | 329 | 4.0 | 4.0 | 0.00 | 0.00 | 0.00 | 83 | 1010.8 |
| 20260508000035 | 61 | 0 | 7.0 | 7.0 | 0.00 | 0.00 | 0.00 | 84 | 1010.8 |
| 20260507235510 | 59 | 297 | 1.0 | 1.0 | 0.00 | 0.00 | 0.00 | 84 | 1010.8 |
| 20260507235013 | 59 | 256 | 1.0 | 1.0 | 0.00 | 0.00 | 0.00 | 84 | 1011.2 |
| 20260507234512 | 59 | 270 | 1.0 | 2.0 | 0.00 | 0.00 | 0.00 | 83 | 1011.2 |
| 20260507234013 | 59 | 231 | 1.0 | 1.0 | 0.00 | 0.00 | 0.00 | 82 | 1011.2 |
| 20260507233023 | 61 | 281 | 1.0 | 2.0 | 0.00 | 0.00 | 0.00 | 80 | 1011.2 |
| 20260507232509 | 61 | 333 | 2.0 | 2.0 | 0.00 | 0.00 | 0.00 | 80 | 1011.2 |
| 20260507232013 | 61 | 339 | 2.0 | 3.0 | 0.00 | 0.00 | 0.00 | 80 | 1010.8 |
| 20260507231513 | 61 | 325 | 1.0 | 1.0 | 0.00 | 0.00 | 0.00 | 80 | 1011.2 |
| 20260507231014 | 61 | 324 | 1.0 | 2.0 | 0.00 | 0.00 | 0.00 | 80 | 1011.2 |
| 20260507230509 | 61 | 282 | 4.0 | 5.0 | 0.00 | 0.00 | 0.00 | 82 | 1011.2 |
| 20260507230032 | 61 | 262 | 2.0 | 2.0 | 0.00 | 0.00 | 0.00 | 82 | 1011.5 |
| 20260507225510 | 61 | 249 | 3.0 | 4.0 | 0.00 | 0.00 | 0.00 | 80 | 1011.2 |
| 20260507225013 | 63 | 314 | 2.0 | 2.0 | 0.00 | 0.00 | 0.00 | 78 | 1011.2 |
| 20260507224012 | 63 | 299 | 2.0 | 3.0 | 0.00 | 0.00 | 0.00 | 79 | 1011.2 |
| 20260507223511 | 63 | 238 | 2.0 | 3.0 | 0.00 | 0.00 | 0.00 | 80 | 1011.5 |
| 20260507222511 | 63 | 291 | 1.0 | 2.0 | 0.00 | 0.00 | 0.00 | 81 | 1011.5 |
| 20260507222013 | 63 | 244 | 0.0 | 0.0 | 0.00 | 0.00 | 0.00 | 80 | 1011.5 |
| 20260507221513 | 63 | 161 | 0.0 | 1.0 | 0.00 | 0.00 | 0.00 | 79 | 1011.5 |
| 20260507221013 | 63 | 291 | 4.0 | 6.0 | 0.00 | 0.00 | 0.00 | 80 | 1011.2 |
| 20260507220510 | 63 | 227 | 2.0 | 3.0 | 0.00 | 0.00 | 0.00 | 80 | 1011.2 |
| 20260507220034 | 63 | 257 | 1.0 | 2.0 | 0.00 | 0.00 | 0.00 | 78 | 1011.2 |
| 20260507215511 | 64 | 267 | 4.0 | 5.0 | 0.00 | 0.00 | 0.00 | 77 | 1011.9 |
| 20260507215014 | 63 | 283 | 4.0 | 5.0 | 0.00 | 0.00 | 0.00 | 77 | 1011.5 |
| 20260507214513 | 63 | 292 | 2.0 | 3.0 | 0.00 | 0.00 | 0.00 | 77 | 1011.5 |
| 20260507214015 | 63 | 338 | 4.0 | 4.0 | 0.00 | 0.00 | 0.00 | 77 | 1011.5 |
| 20260507213509 | 63 | 262 | 2.0 | 4.0 | 0.00 | 0.00 | 0.00 | 78 | 1011.5 |
| 20260507213022 | 63 | 286 | 4.0 | 5.0 | 0.00 | 0.00 | 0.00 | 80 | 1011.5 |
| 20260507212510 | 63 | 266 | 1.0 | 2.0 | 0.00 | 0.00 | 0.00 | 80 | 1011.5 |
| 20260507212014 | 63 | 262 | 1.0 | 2.0 | 0.00 | 0.00 | 0.00 | 80 | 1011.5 |
| 20260507211513 | 61 | 273 | 2.0 | 3.0 | 0.00 | 0.00 | 0.00 | 82 | 1011.5 |
| 20260507211014 | 61 | 245 | 2.0 | 2.0 | 0.00 | 0.00 | 0.00 | 82 | 1011.2 |
| 20260507210510 | 61 | 235 | 1.0 | 2.0 | 0.00 | 0.00 | 0.00 | 81 | 1011.5 |
| 20260507210033 | 61 | 237 | 2.0 | 2.0 | 0.00 | 0.00 | 0.00 | 81 | 1011.5 |
| 20260507205511 | 61 | 202 | 2.0 | 3.0 | 0.00 | 0.00 | 0.00 | 80 | 1011.2 |
| 20260507205014 | 61 | 238 | 2.0 | 2.0 | 0.00 | 0.00 | 0.00 | 79 | 1011.2 |
| 20260507204513 | 63 | 194 | 4.0 | 4.0 | 0.00 | 0.00 | 0.00 | 78 | 1011.2 |
| 20260507204015 | 64 | 248 | 2.0 | 4.0 | 0.00 | 0.00 | 0.00 | 77 | 1011.5 |
| 20260507203509 | 63 | 202 | 0.0 | 0.0 | 0.00 | 0.00 | 0.00 | 76 | 1011.2 |
| 20260507203023 | 63 | 238 | 1.0 | 2.0 | 0.00 | 0.00 | 0.00 | 76 | 1011.2 |
| 20260507202509 | 64 | 268 | 2.0 | 3.0 | 0.00 | 0.00 | 0.00 | 75 | 1011.5 |
| 20260507202014 | 64 | 273 | 5.0 | 6.0 | 0.00 | 0.00 | 0.00 | 76 | 1011.2 |
| 20260507201513 | 64 | 285 | 2.0 | 3.0 | 0.00 | 0.00 | 0.00 | 76 | 1011.2 |
| 20260507201013 | 64 | 270 | 2.0 | 3.0 | 0.00 | 0.00 | 0.00 | 76 | 1011.2 |
| 20260507200509 | 63 | 193 | 1.0 | 2.0 | 0.00 | 0.00 | 0.00 | 76 | 1010.8 |
| 20260507195509 | 63 | 187 | 0.0 | 1.0 | 0.00 | 0.00 | 0.00 | 76 | 1011.5 |
| 20260507195013 | 63 | 16 | 1.0 | 2.0 | 0.00 | 0.00 | 0.00 | 77 | 1011.2 |
| 20260507194513 | 63 | 295 | 1.0 | 2.0 | 0.00 | 0.00 | 0.00 | 77 | 1011.2 |
| 20260507194013 | 63 | 94 | 1.0 | 2.0 | 0.00 | 0.00 | 0.00 | 78 | 1011.2 |
| 20260507193510 | 64 | 4 | 1.0 | 2.0 | 0.00 | 0.00 | 0.00 | 78 | 1011.2 |
| 20260507192510 | 64 | 348 | 2.0 | 3.0 | 0.00 | 0.00 | 0.00 | 78 | 1011.2 |
| 20260507192013 | 64 | 186 | 0.0 | 1.0 | 0.00 | 0.00 | 0.00 | 78 | 1010.8 |
| 20260507191513 | 64 | 41 | 2.0 | 3.0 | 0.00 | 0.00 | 0.00 | 78 | 1011.2 |
| 20260507191014 | 64 | 58 | 0.0 | 1.0 | 0.00 | 0.00 | 0.00 | 78 | 1010.8 |
| 20260507190510 | 64 | 178 | 1.0 | 1.0 | 0.00 | 0.00 | 0.00 | 78 | 1011.2 |
| 20260507190033 | 64 | 265 | 1.0 | 1.0 | 0.00 | 0.00 | 0.00 | 78 | 1010.8 |
| 20260507185014 | 64 | 348 | 2.0 | 4.0 | 0.00 | 0.00 | 0.00 | 78 | 1011.2 |
| 20260507184013 | 64 | 0 | 5.0 | 6.0 | 0.00 | 0.00 | 0.00 | 78 | 1011.2 |
| 20260507183509 | 64 | 357 | 4.0 | 6.0 | 0.00 | 0.00 | 0.00 | 77 | 1011.2 |
| 20260507183024 | 64 | 337 | 3.0 | 4.0 | 0.00 | 0.00 | 0.00 | 77 | 1011.2 |
| 20260507182510 | 64 | 338 | 1.0 | 2.0 | 0.00 | 0.00 | 0.00 | 77 | 1011.2 |
| 20260507182014 | 64 | 0 | 1.0 | 1.0 | 0.00 | 0.00 | 0.00 | 77 | 1011.2 |
| 20260507181513 | 64 | 14 | 2.0 | 2.0 | 0.00 | 0.00 | 0.00 | 77 | 1010.8 |
| 20260507181013 | 64 | 0 | 4.0 | 5.0 | 0.00 | 0.00 | 0.00 | 77 | 1010.8 |
| 20260507180509 | 64 | 2 | 4.0 | 6.0 | 0.00 | 0.00 | 0.00 | 77 | 1010.8 |
| 20260507180032 | 64 | 310 | 2.0 | 4.0 | 0.00 | 0.00 | 0.00 | 76 | 1010.8 |
| 20260507175014 | 66 | 22 | 3.0 | 4.0 | 0.00 | 0.00 | 0.00 | 76 | 1011.2 |
| 20260507174513 | 66 | 11 | 4.0 | 4.0 | 0.00 | 0.00 | 0.00 | 75 | 1011.2 |
| 20260507174014 | 66 | 357 | 2.0 | 4.0 | 0.00 | 0.00 | 0.00 | 74 | 1011.2 |
| 20260507173510 | 66 | 129 | 1.0 | 2.0 | 0.00 | 0.00 | 0.00 | 73 | 1011.2 |
| 20260507172509 | 66 | 301 | 2.0 | 3.0 | 0.00 | 0.00 | 0.00 | 72 | 1010.8 |
| 20260507172014 | 68 | 25 | 1.0 | 2.0 | 0.00 | 0.00 | 0.00 | 70 | 1011.2 |
| 20260507171513 | 68 | 287 | 2.0 | 2.0 | 0.00 | 0.00 | 0.00 | 69 | 1011.2 |
| 20260507170509 | 70 | 346 | 3.0 | 4.0 | 0.00 | 0.00 | 0.00 | 65 | 1011.2 |
| 20260507170032 | 70 | 16 | 1.0 | 2.0 | 0.00 | 0.00 | 0.00 | 68 | 1010.8 |
| 20260507165510 | 68 | 90 | 1.0 | 2.0 | 0.00 | 0.00 | 0.00 | 69 | 1011.2 |
| 20260507165013 | 70 | 42 | 1.0 | 2.0 | 0.00 | 0.00 | 0.00 | 68 | 1011.2 |
| 20260507164513 | 70 | 143 | 2.0 | 4.0 | 0.00 | 0.00 | 0.00 | 66 | 1011.2 |
| 20260507164013 | 70 | 31 | 5.0 | 6.0 | 0.00 | 0.00 | 0.00 | 64 | 1010.8 |
| 20260507163510 | 70 | 43 | 0.0 | 1.0 | 0.00 | 0.00 | 0.00 | 63 | 1010.8 |
| 20260507163024 | 70 | 280 | 1.0 | 2.0 | 0.00 | 0.00 | 0.00 | 64 | 1011.2 |
| 20260507162509 | 70 | 343 | 4.0 | 4.0 | 0.00 | 0.00 | 0.00 | 65 | 1010.8 |
| 20260507161513 | 70 | 94 | 4.0 | 5.0 | 0.00 | 0.00 | 0.00 | 63 | 1011.2 |
| 20260507161013 | 70 | 354 | 2.0 | 3.0 | 0.00 | 0.00 | 0.00 | 67 | 1011.2 |
| 20260507160510 | 68 | 337 | 6.0 | 7.0 | 0.00 | 0.00 | 0.00 | 66 | 1010.8 |
| 20260507160034 | 70 | 348 | 3.0 | 4.0 | 0.00 | 0.00 | 0.00 | 65 | 1010.5 |
| 20260507155510 | 70 | 11 | 4.0 | 6.0 | 0.00 | 0.00 | 0.00 | 65 | 1010.8 |
| 20260507155015 | 70 | 297 | 2.0 | 4.0 | 0.00 | 0.00 | 0.00 | 65 | 1011.2 |
| 20260507154515 | 70 | 45 | 2.0 | 3.0 | 0.00 | 0.00 | 0.00 | 66 | 1010.8 |
| 20260507154013 | 68 | 21 | 6.0 | 7.0 | 0.00 | 0.00 | 0.00 | 66 | 1010.8 |
| 20260507153509 | 68 | 349 | 6.0 | 7.0 | 0.00 | 0.00 | 0.00 | 67 | 1010.8 |
| 20260507153024 | 68 | 32 | 7.0 | 9.0 | 0.00 | 0.00 | 0.00 | 67 | 1010.8 |
| 20260507152509 | 68 | 63 | 5.0 | 7.0 | 0.00 | 0.00 | 0.00 | 69 | 1010.8 |
| 20260507152014 | 68 | 353 | 4.0 | 4.0 | 0.00 | 0.00 | 0.00 | 68 | 1010.8 |
| 20260507151514 | 68 | 30 | 4.0 | 4.0 | 0.00 | 0.00 | 0.00 | 67 | 1011.2 |
| 20260507151013 | 68 | 21 | 6.0 | 7.0 | 0.00 | 0.00 | 0.00 | 67 | 1010.8 |
| 20260507150510 | 68 | 18 | 5.0 | 7.0 | 0.00 | 0.00 | 0.00 | 67 | 1011.2 |
| 20260507150033 | 68 | 4 | 6.0 | 7.0 | 0.00 | 0.00 | 0.00 | 67 | 1011.2 |
| 20260507145510 | 68 | 2 | 7.0 | 8.0 | 0.00 | 0.00 | 0.00 | 66 | 1011.2 |
| 20260507145013 | 68 | 358 | 6.0 | 7.0 | 0.00 | 0.00 | 0.00 | 65 | 1011.2 |
| 20260507143510 | 68 | 2 | 7.0 | 8.0 | 0.00 | 0.00 | 0.00 | 67 | 1011.2 |
| 20260507142510 | 70 | 289 | 3.0 | 4.0 | 0.00 | 0.00 | 0.00 | 65 | 1011.2 |
| 20260507142013 | 70 | 51 | 5.0 | 6.0 | 0.00 | 0.00 | 0.00 | 65 | 1011.2 |
| 20260507141513 | 68 | 15 | 6.0 | 7.0 | 0.00 | 0.00 | 0.00 | 66 | 1011.2 |
| 20260507141014 | 70 | 45 | 6.0 | 7.0 | 0.00 | 0.00 | 0.00 | 64 | 1011.5 |
| 20260507140509 | 70 | 112 | 5.0 | 6.0 | 0.00 | 0.00 | 0.00 | 63 | 1011.5 |
| 20260507140033 | 70 | 324 | 3.0 | 5.0 | 0.00 | 0.00 | 0.00 | 66 | 1011.5 |
| 20260507135510 | 70 | 42 | 6.0 | 7.0 | 0.00 | 0.00 | 0.00 | 63 | 1011.2 |
| 20260507134513 | 68 | 352 | 4.0 | 5.0 | 0.00 | 0.00 | 0.00 | 67 | 1011.5 |
| 20260507134012 | 68 | 5 | 4.0 | 6.0 | 0.00 | 0.00 | 0.00 | 67 | 1011.5 |
| 20260507133510 | 68 | 352 | 6.0 | 9.0 | 0.00 | 0.00 | 0.00 | 68 | 1011.9 |
| 20260507133024 | 68 | 12 | 6.0 | 7.0 | 0.00 | 0.00 | 0.00 | 69 | 1011.9 |
| 20260507132509 | 68 | 13 | 7.0 | 9.0 | 0.00 | 0.00 | 0.00 | 69 | 1011.9 |
| 20260507132013 | 68 | 357 | 5.0 | 7.0 | 0.00 | 0.00 | 0.00 | 69 | 1011.9 |
| 20260507131513 | 66 | 29 | 7.0 | 8.0 | 0.00 | 0.00 | 0.00 | 68 | 1012.2 |
| 20260507131013 | 66 | 43 | 8.0 | 9.0 | 0.00 | 0.00 | 0.00 | 68 | 1011.9 |
| 20260507130510 | 68 | 15 | 6.0 | 7.0 | 0.00 | 0.00 | 0.00 | 69 | 1011.9 |
| 20260507130032 | 68 | 24 | 6.0 | 8.0 | 0.00 | 0.00 | 0.00 | 69 | 1012.2 |
| 20260507125510 | 68 | 358 | 5.0 | 5.0 | 0.00 | 0.00 | 0.00 | 68 | 1012.2 |
| 20260507125014 | 68 | 351 | 4.0 | 7.0 | 0.00 | 0.00 | 0.00 | 68 | 1012.2 |
| 20260507124513 | 68 | 28 | 5.0 | 6.0 | 0.00 | 0.00 | 0.00 | 67 | 1012.2 |
| 20260507123510 | 68 | 220 | 3.0 | 4.0 | 0.00 | 0.00 | 0.00 | 67 | 1012.2 |
| 20260507123024 | 68 | 12 | 6.0 | 7.0 | 0.00 | 0.00 | 0.00 | 69 | 1012.5 |
| 20260507122509 | 68 | 342 | 2.0 | 3.0 | 0.00 | 0.00 | 0.00 | 70 | 1012.2 |
| 20260507122013 | 66 | 88 | 5.0 | 6.0 | 0.00 | 0.00 | 0.00 | 69 | 1012.5 |
| 20260507121513 | 68 | 17 | 6.0 | 7.0 | 0.00 | 0.00 | 0.00 | 68 | 1012.5 |
| 20260507121013 | 68 | 32 | 5.0 | 5.0 | 0.00 | 0.00 | 0.00 | 70 | 1012.2 |
| 20260507120510 | 66 | 357 | 4.0 | 5.0 | 0.00 | 0.00 | 0.00 | 69 | 1012.2 |
| 20260507120033 | 68 | 27 | 6.0 | 7.0 | 0.00 | 0.00 | 0.00 | 70 | 1012.2 |
| 20260507115510 | 66 | 358 | 6.0 | 7.0 | 0.00 | 0.00 | 0.00 | 70 | 1012.2 |
| 20260507115014 | 66 | 31 | 7.0 | 7.0 | 0.00 | 0.00 | 0.00 | 69 | 1012.5 |
| 20260507114514 | 68 | 55 | 6.0 | 7.0 | 0.00 | 0.00 | 0.00 | 70 | 1012.2 |
| 20260507113509 | 68 | 29 | 4.0 | 5.0 | 0.00 | 0.00 | 0.00 | 69 | 1012.2 |
| 20260507113023 | 66 | 25 | 5.0 | 5.0 | 0.00 | 0.00 | 0.00 | 71 | 1012.2 |
| 20260507112509 | 66 | 0 | 5.0 | 6.0 | 0.00 | 0.00 | 0.00 | 72 | 1012.5 |
| 20260507112013 | 66 | 34 | 4.0 | 6.0 | 0.00 | 0.00 | 0.00 | 71 | 1012.2 |
| 20260507111513 | 66 | 333 | 8.0 | 9.0 | 0.00 | 0.00 | 0.00 | 70 | 1012.5 |
| 20260507111013 | 66 | 3 | 6.0 | 7.0 | 0.00 | 0.00 | 0.00 | 70 | 1012.5 |
| 20260507110510 | 66 | 162 | 4.0 | 4.0 | 0.00 | 0.00 | 0.00 | 71 | 1012.5 |
| 20260507110032 | 66 | 330 | 4.0 | 6.0 | 0.00 | 0.00 | 0.00 | 71 | 1012.9 |
| 20260507105509 | 66 | 33 | 6.0 | 7.0 | 0.00 | 0.00 | 0.00 | 69 | 1012.9 |
| 20260507105013 | 66 | 334 | 4.0 | 5.0 | 0.00 | 0.00 | 0.00 | 71 | 1012.5 |
| 20260507104513 | 66 | 15 | 4.0 | 4.0 | 0.00 | 0.00 | 0.00 | 71 | 1012.5 |
| 20260507104014 | 66 | 19 | 5.0 | 5.0 | 0.00 | 0.00 | 0.00 | 72 | 1012.9 |
| 20260507103509 | 66 | 46 | 1.0 | 2.0 | 0.00 | 0.00 | 0.00 | 74 | 1012.5 |
| 20260507103023 | 66 | 63 | 2.0 | 3.0 | 0.00 | 0.00 | 0.00 | 73 | 1012.9 |
| 20260507102509 | 66 | 93 | 3.0 | 5.0 | 0.00 | 0.00 | 0.00 | 73 | 1012.9 |
| 20260507102013 | 66 | 61 | 5.0 | 7.0 | 0.00 | 0.00 | 0.00 | 73 | 1012.9 |
| 20260507101513 | 66 | 17 | 5.0 | 6.0 | 0.00 | 0.00 | 0.00 | 72 | 1012.9 |
| 20260507101013 | 66 | 354 | 6.0 | 9.0 | 0.00 | 0.00 | 0.00 | 71 | 1012.9 |
| 20260507100509 | 66 | 77 | 4.0 | 7.0 | 0.00 | 0.00 | 0.00 | 71 | 1012.9 |
| 20260507100033 | 68 | 358 | 1.0 | 2.0 | 0.00 | 0.00 | 0.00 | 71 | 1012.9 |
| 20260507095509 | 66 | 14 | 4.0 | 5.0 | 0.00 | 0.00 | 0.00 | 71 | 1012.9 |
| 20260507095013 | 66 | 22 | 5.0 | 7.0 | 0.00 | 0.00 | 0.00 | 71 | 1012.5 |
| 20260507094512 | 66 | 0 | 3.0 | 4.0 | 0.00 | 0.00 | 0.00 | 72 | 1012.5 |
| 20260507094013 | 66 | 266 | 2.0 | 2.0 | 0.00 | 0.00 | 0.00 | 73 | 1012.5 |
| 20260507093509 | 68 | 90 | 4.0 | 5.0 | 0.00 | 0.00 | 0.00 | 71 | 1012.5 |
| 20260507093024 | 66 | 15 | 1.0 | 2.0 | 0.00 | 0.00 | 0.00 | 72 | 1012.5 |
| 20260507092509 | 66 | 78 | 6.0 | 7.0 | 0.00 | 0.00 | 0.00 | 72 | 1012.5 |
| 20260507092013 | 66 | 30 | 5.0 | 7.0 | 0.00 | 0.00 | 0.00 | 72 | 1012.5 |
| 20260507091513 | 66 | 2 | 3.0 | 4.0 | 0.00 | 0.00 | 0.00 | 73 | 1012.2 |
| 20260507091013 | 66 | 138 | 1.0 | 2.0 | 0.00 | 0.00 | 0.00 | 74 | 1012.2 |
| 20260507090509 | 66 | 103 | 4.0 | 6.0 | 0.00 | 0.00 | 0.00 | 72 | 1012.2 |
| 20260507090033 | 66 | 39 | 1.0 | 2.0 | 0.00 | 0.00 | 0.00 | 72 | 1012.2 |
| 20260507085509 | 66 | 58 | 4.0 | 7.0 | 0.00 | 0.00 | 0.00 | 73 | 1012.2 |
| 20260507085013 | 66 | 338 | 5.0 | 6.0 | 0.00 | 0.00 | 0.00 | 72 | 1011.9 |
| 20260507084513 | 66 | 73 | 4.0 | 5.0 | 0.00 | 0.00 | 0.00 | 72 | 1012.2 |
| 20260507084013 | 66 | 28 | 2.0 | 3.0 | 0.00 | 0.00 | 0.00 | 71 | 1012.2 |
| 20260507083510 | 66 | 121 | 3.0 | 4.0 | 0.00 | 0.00 | 0.00 | 72 | 1012.2 |
| 20260507083024 | 66 | 35 | 4.0 | 5.0 | 0.00 | 0.00 | 0.00 | 72 | 1012.2 |
| 20260507082509 | 66 | 55 | 6.0 | 7.0 | 0.00 | 0.00 | 0.00 | 71 | 1012.2 |
| 20260507082013 | 66 | 94 | 6.0 | 7.0 | 0.00 | 0.00 | 0.00 | 73 | 1012.2 |
| 20260507081513 | 66 | 75 | 6.0 | 7.0 | 0.00 | 0.00 | 0.00 | 73 | 1012.5 |
| 20260507081012 | 66 | 30 | 4.0 | 4.0 | 0.00 | 0.00 | 0.00 | 72 | 1012.2 |
| 20260507080509 | 66 | 66 | 4.0 | 6.0 | 0.00 | 0.00 | 0.00 | 72 | 1012.5 |
| 20260507080033 | 66 | 338 | 3.0 | 4.0 | 0.00 | 0.00 | 0.00 | 72 | 1012.5 |
| 20260507075510 | 66 | 71 | 4.0 | 4.0 | 0.00 | 0.00 | 0.00 | 73 | 1012.2 |
| 20260507075013 | 66 | 358 | 4.0 | 4.0 | 0.00 | 0.00 | 0.00 | 72 | 1012.5 |
| 20260507074513 | 66 | 3 | 4.0 | 4.0 | 0.00 | 0.00 | 0.00 | 72 | 1012.2 |
| 20260507074013 | 66 | 42 | 3.0 | 4.0 | 0.00 | 0.00 | 0.00 | 72 | 1012.2 |
| 20260507073510 | 66 | 91 | 6.0 | 7.0 | 0.00 | 0.00 | 0.00 | 71 | 1012.2 |
| 20260507073024 | 66 | 7 | 2.0 | 2.0 | 0.00 | 0.00 | 0.00 | 71 | 1012.5 |
| 20260507072509 | 66 | 112 | 2.0 | 2.0 | 0.00 | 0.00 | 0.00 | 71 | 1012.9 |
| 20260507072013 | 66 | 26 | 2.0 | 4.0 | 0.00 | 0.00 | 0.00 | 72 | 1012.5 |
| 20260507071513 | 66 | 94 | 2.0 | 4.0 | 0.00 | 0.00 | 0.00 | 72 | 1012.5 |
| 20260507071014 | 66 | 47 | 2.0 | 3.0 | 0.00 | 0.00 | 0.00 | 73 | 1012.5 |
| 20260507070510 | 66 | 7 | 3.0 | 4.0 | 0.00 | 0.00 | 0.00 | 72 | 1012.9 |
| 20260507070035 | 66 | 9 | 2.0 | 4.0 | 0.00 | 0.00 | 0.00 | 73 | 1012.5 |
| 20260507065510 | 66 | 137 | 1.0 | 2.0 | 0.00 | 0.00 | 0.00 | 74 | 1012.2 |
| 20260507065013 | 64 | 32 | 2.0 | 3.0 | 0.00 | 0.00 | 0.00 | 75 | 1012.2 |
| 20260507064513 | 64 | 129 | 5.0 | 6.0 | 0.00 | 0.00 | 0.00 | 74 | 1012.2 |
| 20260507064014 | 64 | 105 | 4.0 | 4.0 | 0.00 | 0.00 | 0.00 | 75 | 1012.2 |
| 20260507063509 | 64 | 99 | 2.0 | 2.0 | 0.00 | 0.00 | 0.00 | 76 | 1012.2 |
| 20260507063025 | 64 | 29 | 2.0 | 2.0 | 0.00 | 0.00 | 0.00 | 75 | 1012.2 |
| 20260507062509 | 64 | 56 | 1.0 | 2.0 | 0.00 | 0.00 | 0.00 | 75 | 1012.2 |
| 20260507062013 | 66 | 46 | 5.0 | 6.0 | 0.00 | 0.00 | 0.00 | 72 | 1011.9 |
| 20260507061514 | 66 | 328 | 1.0 | 2.0 | 0.00 | 0.00 | 0.00 | 74 | 1011.9 |
| 20260507061015 | 64 | 26 | 2.0 | 4.0 | 0.00 | 0.00 | 0.00 | 74 | 1011.9 |
| 20260507060509 | 64 | 33 | 2.0 | 4.0 | 0.00 | 0.00 | 0.00 | 75 | 1011.9 |
| 20260507060032 | 64 | 58 | 2.0 | 2.0 | 0.00 | 0.00 | 0.00 | 74 | 1011.9 |
| 20260507055509 | 64 | 68 | 4.0 | 7.0 | 0.00 | 0.00 | 0.00 | 74 | 1011.9 |
| 20260507055014 | 64 | 42 | 3.0 | 3.0 | 0.00 | 0.00 | 0.00 | 74 | 1011.9 |
| 20260507054513 | 64 | 18 | 2.0 | 4.0 | 0.00 | 0.00 | 0.00 | 73 | 1011.5 |
| 20260507054013 | 64 | 245 | 1.0 | 2.0 | 0.00 | 0.00 | 0.00 | 76 | 1011.5 |
| 20260507053509 | 64 | 315 | 4.0 | 7.0 | 0.00 | 0.00 | 0.00 | 75 | 1011.5 |
| 20260507053022 | 64 | 308 | 2.0 | 4.0 | 0.00 | 0.00 | 0.00 | 75 | 1011.5 |
| 20260507052509 | 64 | 44 | 3.0 | 4.0 | 0.00 | 0.00 | 0.00 | 75 | 1011.9 |
| 20260507052013 | 64 | 37 | 3.0 | 4.0 | 0.00 | 0.00 | 0.00 | 75 | 1011.5 |
| 20260507051513 | 64 | 72 | 5.0 | 7.0 | 0.00 | 0.00 | 0.00 | 75 | 1011.5 |
| 20260507051013 | 64 | 57 | 2.0 | 4.0 | 0.00 | 0.00 | 0.00 | 76 | 1011.5 |
| 20260507050510 | 63 | 9 | 1.0 | 2.0 | 0.00 | 0.00 | 0.00 | 75 | 1011.2 |
| 20260507050032 | 63 | 157 | 2.0 | 2.0 | 0.00 | 0.00 | 0.00 | 76 | 1011.5 |
| 20260507045510 | 63 | 356 | 2.0 | 3.0 | 0.00 | 0.00 | 0.00 | 76 | 1011.2 |
| 20260507045012 | 63 | 320 | 6.0 | 7.0 | 0.00 | 0.00 | 0.00 | 76 | 1011.2 |
| 20260507044513 | 63 | 311 | 1.0 | 2.0 | 0.00 | 0.00 | 0.00 | 77 | 1011.2 |
| 20260507044013 | 63 | 348 | 2.0 | 4.0 | 0.00 | 0.00 | 0.00 | 77 | 1011.2 |
| 20260507043509 | 63 | 234 | 3.0 | 4.0 | 0.00 | 0.00 | 0.00 | 77 | 1011.2 |
| 20260507043022 | 63 | 38 | 4.0 | 5.0 | 0.00 | 0.00 | 0.00 | 77 | 1011.2 |
| 20260507042509 | 63 | 300 | 4.0 | 4.0 | 0.00 | 0.00 | 0.00 | 77 | 1011.2 |
| 20260507042013 | 63 | 275 | 4.0 | 7.0 | 0.00 | 0.00 | 0.00 | 78 | 1011.2 |
| 20260507041513 | 63 | 291 | 6.0 | 7.0 | 0.00 | 0.00 | 0.00 | 77 | 1011.2 |
| 20260507041013 | 63 | 329 | 6.0 | 9.0 | 0.00 | 0.00 | 0.00 | 76 | 1011.2 |
| 20260507040509 | 63 | 347 | 6.0 | 7.0 | 0.00 | 0.00 | 0.00 | 77 | 1011.2 |
| 20260507040031 | 63 | 0 | 7.0 | 9.0 | 0.00 | 0.00 | 0.00 | 78 | 1011.2 |
| 20260507035510 | 63 | 267 | 4.0 | 5.0 | 0.00 | 0.00 | 0.00 | 78 | 1011.2 |
| 20260507035013 | 63 | 135 | 2.0 | 3.0 | 0.00 | 0.00 | 0.00 | 78 | 1010.8 |
| 20260507034014 | 63 | 334 | 7.0 | 9.0 | 0.00 | 0.00 | 0.00 | 78 | 1011.2 |